Weather History for Russell, KS

Change the Weather History Date:

Wednesday, February 13, 2013

  Actual Average Record
Temperature  
Mean Temperature 38 °F -  
Max Temperature 57 °F 44 °F 78 °F (1954)
Min Temperature 19 °F 22 °F 3 °F (2007)
Degree Days  
Heating Degree Days 27    
Moisture  
Dew Point 18 °F    
Average Humidity 52    
Maximum Humidity 82    
Minimum Humidity 21    
Precipitation  
Precipitation 0.00 in - - ()
Sea Level Pressure  
Sea Level Pressure 29.94 in    
Wind  
Wind Speed 9 mph (West)    
Max Wind Speed 21 mph    
Max Gust Speed 26 mph    
Visibility 10 miles    
Events      
Averages and records for this station are not official NWS values.
T = Trace of Precipitation, MM = Missing Value Source: NWS Daily Summary

Daily Weather History Graph

Daily Weather History Graph

Search for Another Location

Airport:

Trip Planner

Search our weather history database for the weather conditions in past years. The results will help you decide how hot, cold, wet, or windy it might be!

Date:

Astronomy

Feb. 13, 2013 Rise Set
Actual Time 7:28 AM CST 6:10 PM CST
Civil Twilight 7:01 AM CST 6:38 PM CST
Nautical Twilight 6:29 AM CST 7:09 PM CST
Astronomical Twilight 5:58 AM CST 7:40 PM CST
Moon 9:01 AM CST (2/13) 10:12 PM CST (2/13)
Length of Visible Light 11h 37m
Length of Day
10h 42m
Waxing Crescent, 14% of the Moon is Illuminated
Feb 13
Waxing Crescent
Feb 17
First Quarter
Feb 25
Full
Mar 4
Last Quarter
Mar 11
New

Hourly Weather History & Observations

Time (CST) Temp. Windchill Dew Point Humidity Pressure Visibility Wind Dir Wind Speed Gust Speed Precip Events Conditions
12:53 AM 24.1 °F 17.0 °F 15.1 °F 69% 30.02 in 10.0 mi West 5.8 mph - N/A   Clear
1:53 AM 19.9 °F 10.1 °F 14.0 °F 78% 30.01 in 10.0 mi SW 8.1 mph - N/A   Clear
2:53 AM 23.0 °F 13.9 °F 15.1 °F 72% 30.01 in 10.0 mi WSW 8.1 mph - N/A   Mostly Cloudy
3:53 AM 26.1 °F 19.4 °F 19.0 °F 75% 30.00 in 10.0 mi WSW 5.8 mph - N/A   Overcast
4:53 AM 23.0 °F 13.9 °F 17.1 °F 78% 29.99 in 10.0 mi WSW 8.1 mph - N/A   Clear
5:53 AM 23.0 °F 13.1 °F 16.0 °F 74% 29.98 in 10.0 mi WSW 9.2 mph - N/A   Clear
6:53 AM 19.9 °F 10.1 °F 15.1 °F 81% 29.99 in 10.0 mi WSW 8.1 mph - N/A   Clear
7:53 AM 21.9 °F 11.0 °F 17.1 °F 82% 30.00 in 10.0 mi West 10.4 mph - N/A   Clear
8:53 AM 28.0 °F 21.7 °F 19.9 °F 72% 30.00 in 10.0 mi WSW 5.8 mph - N/A   Clear
9:53 AM 39.9 °F 33.9 °F 19.9 °F 45% 29.99 in 10.0 mi WNW 9.2 mph - N/A   Clear
10:53 AM 46.0 °F 39.9 °F 19.9 °F 35% 29.97 in 10.0 mi WNW 13.8 mph - N/A   Clear
11:53 AM 50.0 °F - 19.0 °F 29% 29.96 in 10.0 mi West 15.0 mph - N/A   Clear
12:53 PM 53.1 °F - 19.0 °F 26% 29.92 in 10.0 mi West 18.4 mph 24.2 mph N/A   Clear
1:53 PM 55.0 °F - 19.0 °F 24% 29.90 in 10.0 mi NW 20.7 mph - N/A   Clear
2:53 PM 57.9 °F - 18.0 °F 21% 29.87 in 10.0 mi WNW 17.3 mph 26.5 mph N/A   Clear
3:53 PM 57.0 °F - 19.0 °F 23% 29.86 in 10.0 mi WNW 15.0 mph 26.5 mph N/A   Clear
4:53 PM 55.9 °F - 18.0 °F 23% 29.87 in 10.0 mi West 15.0 mph 24.2 mph N/A   Clear
5:53 PM 53.1 °F - 19.9 °F 27% 29.88 in 10.0 mi WNW 10.4 mph - N/A   Clear
6:53 PM 44.1 °F 40.1 °F 19.9 °F 38% 29.89 in 10.0 mi West 6.9 mph - N/A   Clear
7:53 PM 39.0 °F 34.0 °F 19.0 °F 45% 29.91 in 10.0 mi West 6.9 mph - N/A   Clear
8:53 PM 39.0 °F 34.0 °F 21.0 °F 49% 29.90 in 10.0 mi WSW 6.9 mph - N/A   Overcast
9:53 PM 37.0 °F 29.8 °F 21.9 °F 54% 29.91 in 10.0 mi West 10.4 mph - N/A   Clear
10:53 PM 34.0 °F 27.2 °F 21.0 °F 59% 29.91 in 10.0 mi West 8.1 mph - N/A   Clear
11:53 PM 30.9 °F 24.3 °F 21.0 °F 67% 29.93 in 10.0 mi West 6.9 mph - N/A   Clear